SR3WXA Weather Reports


time (UTC)temp
F
wind
direction
speed
knots
gust
knots
rain 1hr
in
rain 24hr
in
rain mn
in
humidity
%
barometer
mb
20200708140811 61 252 7.0 13.9 0.00 0.03 0.03 69 1014.8
20200708140727 61 252 7.0 13.9 0.00 0.03 0.03 69 1014.8
20200708140219 60 245 7.0 14.8 0.00 0.03 0.03 69 1014.6
20200708135841 61 251 5.2 11.3 0.00 0.03 0.03 70 1014.8
20200708135727 61 251 5.2 11.3 0.00 0.03 0.03 70 1014.8
20200708135331 61 254 6.1 11.3 0.00 0.03 0.03 70 1014.8
20200708135227 61 254 6.1 11.3 0.00 0.03 0.03 70 1014.8
20200708134012 61 229 5.2 12.2 0.00 0.03 0.03 69 1014.7
20200708133927 61 229 5.2 12.2 0.00 0.03 0.03 69 1014.7
20200708133550 61 246 6.1 13.0 0.00 0.03 0.03 69 1014.7
20200708133425 61 246 6.1 13.0 0.00 0.03 0.03 69 1014.7
20200708133159 60 252 3.5 13.0 0.00 0.03 0.03 69 1014.6
20200708133052 61 258 3.5 13.0 0.00 0.03 0.03 69 1014.8
20200708132925 61 258 3.5 13.0 0.00 0.03 0.03 69 1014.8
20200708132510 61 232 5.2 12.2 0.00 0.03 0.03 69 1014.8
20200708132425 61 232 5.2 12.2 0.00 0.03 0.03 69 1014.8
20200708132102 61 236 7.0 12.2 0.00 0.03 0.03 69 1014.9
20200708131927 61 236 7.0 12.2 0.00 0.03 0.03 69 1014.9
20200708131504 61 251 4.3 12.2 0.00 0.03 0.03 70 1014.8
20200708131425 61 251 4.3 12.2 0.00 0.03 0.03 70 1014.8
20200708130703 60 244 2.6 9.6 0.00 0.03 0.03 71 1014.8
20200708130426 60 244 2.6 9.6 0.00 0.03 0.03 71 1014.8
20200708130124 60 246 4.3 10.4 0.00 0.03 0.03 70 1014.9
20200708125926 60 246 4.3 10.4 0.00 0.03 0.03 70 1014.9
20200708125534 60 232 5.2 11.3 0.00 0.03 0.03 70 1014.9
20200708125426 60 232 5.2 11.3 0.00 0.03 0.03 70 1014.9
20200708125020 60 250 3.5 12.2 0.00 0.03 0.03 70 1014.8
20200708124926 60 250 3.5 12.2 0.00 0.03 0.03 70 1014.8
20200708124532 60 251 5.2 12.2 0.00 0.03 0.03 69 1014.8
20200708124426 60 251 5.2 12.2 0.00 0.03 0.03 69 1014.8
20200708124019 60 251 5.2 9.6 0.00 0.03 0.03 69 1014.8
20200708123925 60 251 5.2 9.6 0.00 0.03 0.03 69 1014.8
20200708123555 60 222 6.1 11.3 0.00 0.03 0.03 69 1014.8
20200708123426 60 222 6.1 11.3 0.00 0.03 0.03 69 1014.8
20200708123210 60 254 3.5 11.3 0.00 0.03 0.03 70 1014.6
20200708123032 60 255 6.1 11.3 0.00 0.03 0.03 69 1014.8
20200708122926 60 255 6.1 11.3 0.00 0.03 0.03 69 1014.8
20200708120226 59 263 7.8 10.4 0.00 0.03 0.03 71 1014.5
20200708114930 60 217 5.2 11.3 0.00 0.03 0.03 70 1014.8
20200708114639 59 226 5.2 12.2 0.00 0.03 0.03 70 1014.5
20200708114430 60 228 3.5 12.2 0.00 0.03 0.03 70 1014.8
20200708113232 59 231 7.8 13.9 0.00 0.03 0.03 69 1014.6
20200708112650 60 243 5.2 12.2 0.00 0.03 0.03 69 1014.8
20200708112413 60 243 5.2 12.2 0.00 0.03 0.03 69 1014.8
20200708112022 59 225 7.0 13.0 0.00 0.03 0.03 69 1014.8
20200708111912 59 225 7.0 13.0 0.00 0.03 0.03 69 1014.8
20200708111630 59 214 7.0 11.3 0.00 0.03 0.03 69 1014.6
20200708111513 59 237 7.0 13.0 0.00 0.03 0.03 69 1014.9
20200708111418 59 237 7.0 13.0 0.00 0.03 0.03 69 1014.9
20200708111047 59 225 8.7 13.0 0.00 0.03 0.03 69 1014.8
20200708110912 59 225 8.7 13.0 0.00 0.03 0.03 69 1014.8
20200708110537 60 239 8.7 13.9 0.00 0.03 0.03 69 1014.8
20200708110413 60 239 8.7 13.9 0.00 0.03 0.03 69 1014.8
20200708110128 59 223 8.7 13.0 0.00 0.03 0.03 68 1014.7
20200708110042 60 251 7.8 14.8 0.00 0.03 0.03 68 1014.8
20200708105913 60 251 7.8 14.8 0.00 0.03 0.03 68 1014.8
20200708105526 60 238 7.8 17.4 0.00 0.03 0.03 67 1014.8
20200708105413 60 238 7.8 17.4 0.00 0.03 0.03 67 1014.8
20200708105037 60 258 7.0 17.4 0.00 0.03 0.03 67 1014.8
20200708104912 60 258 7.0 17.4 0.00 0.03 0.03 67 1014.8
20200708103635 60 245 9.6 15.6 0.00 0.03 0.03 67 1014.8
20200708103446 60 245 9.6 15.6 0.00 0.03 0.03 67 1014.8
20200708103058 60 277 5.2 14.8 0.00 0.03 0.03 66 1014.6
20200708102535 60 254 7.8 14.8 0.00 0.03 0.03 66 1014.8
20200708102445 60 254 7.8 14.8 0.00 0.03 0.03 66 1014.8
20200708101944 59 244 7.8 14.8 0.00 0.03 0.03 68 1014.7
20200708101626 59 269 5.2 12.2 0.00 0.03 0.03 69 1014.5
20200708101539 59 216 4.3 12.2 0.00 0.03 0.03 68 1014.7
20200708101445 59 216 4.3 12.2 0.00 0.03 0.03 68 1014.7
20200708101058 59 260 6.1 12.2 0.00 0.03 0.03 69 1014.7
20200708100943 59 260 6.1 12.2 0.00 0.03 0.03 69 1014.7
20200708100139 58 244 7.0 12.2 0.00 0.03 0.03 70 1014.5
20200708100123 59 255 7.0 11.3 0.00 0.03 0.03 70 1014.7
20200708095834 59 255 7.0 11.3 0.00 0.03 0.03 70 1014.7
20200708094829 59 258 6.1 12.2 0.00 0.03 0.03 70 1014.6
20200708094033 59 254 7.0 13.9 0.00 0.03 0.03 68 1014.5
20200708093827 59 254 7.0 13.9 0.00 0.03 0.03 68 1014.5
20200708093151 59 241 6.1 14.8 0.00 0.03 0.03 69 1014.5
20200708093038 59 244 6.1 14.8 0.00 0.03 0.03 70 1014.3
20200708092826 59 241 6.1 14.8 0.00 0.03 0.03 69 1014.5
20200708091614 59 259 6.1 12.2 0.00 0.03 0.03 70 1014.3
20200708091047 59 253 7.8 13.9 0.00 0.03 0.03 68 1014.6
20200708090836 59 253 7.8 13.9 0.00 0.03 0.03 68 1014.6
20200708090519 59 231 6.1 13.9 0.00 0.03 0.03 70 1014.6
20200708090340 59 231 6.1 13.9 0.00 0.03 0.03 70 1014.6
20200708090108 59 243 7.8 14.8 0.00 0.03 0.03 71 1014.3
20200708090053 59 280 6.1 13.9 0.00 0.03 0.03 73 1014.5
20200708085837 59 280 6.1 13.9 0.00 0.03 0.03 73 1014.5
20200708085418 59 258 6.1 13.0 0.00 0.03 0.03 73 1014.6
20200708085339 59 254 5.2 13.9 0.00 0.03 0.03 73 1014.6
20200708085337 59 258 6.1 13.0 0.00 0.03 0.03 73 1014.6
20200708084837 59 254 5.2 13.9 0.00 0.03 0.03 73 1014.6
20200708084820 59 253 8.7 13.9 0.00 0.03 0.03 72 1014.6
20200708084336 59 253 8.7 13.9 0.00 0.03 0.03 72 1014.6
20200708084118 59 263 7.0 13.9 0.00 0.03 0.03 73 1014.6
20200708083836 59 263 7.0 13.9 0.00 0.03 0.03 73 1014.6
20200708083324 59 282 4.3 15.6 0.00 0.03 0.03 73 1014.6
20200708083058 59 282 4.3 15.6 0.00 0.03 0.03 73 1014.6
20200708082817 59 248 7.8 15.6 0.00 0.03 0.03 73 1014.7
20200708082556 59 248 7.8 15.6 0.00 0.03 0.03 73 1014.7
20200708081933 58 300 6.1 10.4 0.00 0.03 0.03 75 1014.3
20200708081748 59 273 6.1 10.4 0.00 0.03 0.03 75 1014.5
20200708081556 59 273 6.1 10.4 0.00 0.03 0.03 75 1014.5
20200708081057 58 264 5.2 10.4 0.00 0.03 0.03 75 1014.5
20200708080721 58 234 2.6 10.4 0.00 0.03 0.03 76 1014.4
20200708080556 58 234 2.6 10.4 0.00 0.03 0.03 76 1014.4
20200708080112 58 262 5.2 13.0 0.00 0.03 0.03 76 1014.3
20200708080056 58 265 5.2 13.0 0.00 0.03 0.03 76 1014.5
20200708075557 58 255 7.0 13.0 0.00 0.03 0.03 75 1014.5
20200708074640 58 265 4.3 12.2 0.00 0.03 0.03 76 1014.2
20200708074226 59 270 6.1 12.2 0.00 0.03 0.03 76 1014.4
20200708073727 59 257 5.2 12.2 0.00 0.03 0.03 77 1014.4
20200708073227 58 256 6.1 12.2 0.00 0.03 0.03 77 1014.3
20200708071501 58 227 7.0 13.9 0.00 0.03 0.03 80 1014.3
20200708071000 57 252 4.3 13.9 0.00 0.03 0.03 81 1014.4
20200708070501 57 262 5.2 11.3 0.00 0.03 0.03 82 1014.4
20200708070130 56 227 6.1 12.2 0.00 0.03 0.03 83 1014.1
20200708070000 57 247 6.1 11.3 0.00 0.03 0.03 83 1014.3
20200708065736 56 240 7.0 13.9 0.00 0.03 0.03 84 1014.4
20200708065500 56 240 7.0 13.9 0.00 0.03 0.03 84 1014.4
20200708065000 56 266 7.8 13.9 0.00 0.03 0.03 84 1014.4
20200708064108 56 248 6.1 11.3 0.00 0.03 0.03 86 1014.4
20200708064001 56 248 6.1 11.3 0.00 0.03 0.03 86 1014.4
20200708063502 56 262 3.5 13.9 0.00 0.03 0.03 86 1014.4
20200708063001 56 255 7.8 14.8 0.00 0.03 0.03 86 1014.5
20200708062603 56 244 5.2 14.8 0.00 0.03 0.03 86 1014.5
20200708062500 56 244 5.2 14.8 0.00 0.03 0.03 86 1014.5
20200708061500 55 248 7.8 12.2 0.00 0.03 0.03 87 1014.4
20200708061000 55 265 5.2 12.2 0.00 0.03 0.03 88 1014.3
20200708060122 55 290 3.5 11.3 0.01 0.03 0.03 89 1014.0
20200708054510 54 250 5.2 13.9 0.01 0.03 0.03 90 1013.8
20200708054050 55 248 8.7 13.9 0.01 0.03 0.03 91 1014.1
20200708054000 55 248 8.7 13.9 0.01 0.03 0.03 91 1014.1
20200708052541 54 237 7.8 13.9 0.01 0.03 0.03 91 1014.1
20200708052500 54 237 7.8 13.9 0.01 0.03 0.03 91 1014.1
20200708052001 54 255 7.0 13.0 0.01 0.03 0.03 92 1014.0
20200708051710 54 238 6.1 11.3 0.01 0.03 0.03 92 1013.7
20200708051133 54 240 7.0 13.0 0.01 0.03 0.03 92 1013.9
20200708050741 54 267 7.0 13.0 0.00 0.02 0.02 92 1013.9
20200708050632 54 267 7.0 13.0 0.00 0.02 0.02 92 1013.9
20200708050234 54 237 5.2 10.4 0.00 0.02 0.02 92 1013.9
20200708050133 54 237 5.2 10.4 0.00 0.02 0.02 92 1013.9
20200708050108 54 219 5.2 10.4 0.00 0.02 0.02 92 1013.6
20200708045706 54 242 2.6 10.4 0.00 0.02 0.02 93 1013.9
20200708045634 54 242 2.6 10.4 0.00 0.02 0.02 93 1013.9
20200708045301 54 225 4.3 10.4 0.00 0.02 0.02 93 1013.9
20200708045132 54 225 4.3 10.4 0.00 0.02 0.02 93 1013.9
20200708044745 54 245 3.5 10.4 0.00 0.02 0.02 93 1013.9
20200708044632 54 245 3.5 10.4 0.00 0.02 0.02 93 1013.9
20200708044132 54 231 6.1 10.4 0.00 0.02 0.02 93 1014.0
20200708043722 54 235 6.1 10.4 0.00 0.02 0.02 93 1014.1
20200708043633 54 235 6.1 10.4 0.00 0.02 0.02 93 1014.1
20200708043242 54 238 5.2 10.4 0.00 0.02 0.02 93 1014.0
20200708043135 53 274 6.1 10.4 0.00 0.02 0.02 93 1013.7
20200708043133 54 238 5.2 10.4 0.00 0.02 0.02 93 1014.0
20200708042729 54 245 4.3 9.6 0.00 0.02 0.02 93 1014.0
20200708042633 54 245 4.3 9.6 0.00 0.02 0.02 93 1014.0
20200708042232 54 279 2.6 9.6 0.00 0.02 0.02 93 1014.0
20200708042132 54 279 2.6 9.6 0.00 0.02 0.02 93 1014.0
20200708041739 53 221 5.2 8.7 0.00 0.02 0.02 93 1013.7
20200708041727 54 225 4.3 8.7 0.00 0.02 0.02 93 1014.0
20200708041633 54 225 4.3 8.7 0.00 0.02 0.02 93 1014.0
20200708040946 54 224 6.1 9.6 0.00 0.02 0.02 93 1014.0
20200708040519 54 231 1.7 9.6 0.00 0.02 0.02 93 1014.0
20200708040445 54 231 1.7 9.6 0.00 0.02 0.02 93 1014.0
20200708040400 53 229 6.1 9.6 0.00 0.02 0.02 93 1013.8
20200708040017 54 223 3.5 8.7 0.00 0.02 0.02 93 1014.0
20200708035945 54 223 3.5 8.7 0.00 0.02 0.02 93 1014.0
20200708035024 54 255 3.5 7.8 0.00 0.02 0.02 93 1014.0
20200708034944 54 255 3.5 7.8 0.00 0.02 0.02 93 1014.0
20200708034531 54 213 3.5 8.7 0.00 0.02 0.02 92 1014.0
20200708034445 54 213 3.5 8.7 0.00 0.02 0.02 92 1014.0
20200708033945 54 216 4.3 8.7 0.00 0.02 0.02 92 1014.0
20200708033521 54 258 1.7 8.7 0.01 0.02 0.02 92 1014.0
20200708033446 54 258 1.7 8.7 0.01 0.02 0.02 92 1014.0
20200708033235 53 250 4.3 7.8 0.01 0.02 0.02 92 1013.7
20200708032944 54 223 5.2 8.7 0.01 0.02 0.02 92 1013.9
20200708032246 53 225 4.3 8.7 0.01 0.02 0.02 93 1014.0
20200708032118 53 225 4.3 8.7 0.01 0.02 0.02 93 1014.0
20200708031624 53 225 1.7 7.8 0.01 0.02 0.02 93 1013.8
20200708030812 53 243 2.6 8.7 0.01 0.02 0.02 93 1014.0
20200708030725 53 243 2.6 8.7 0.01 0.02 0.02 93 1014.0
20200708030105 53 236 1.7 7.0 0.01 0.02 0.02 93 1013.9
20200708025725 54 234 3.5 7.0 0.01 0.02 0.02 93 1014.1
20200708025226 54 230 3.5 9.6 0.01 0.02 0.02 92 1014.1
20200708024806 54 229 3.5 9.6 0.01 0.02 0.02 92 1014.2
20200708024726 54 229 3.5 9.6 0.01 0.02 0.02 92 1014.2
20200708024225 54 253 1.7 8.7 0.02 0.02 0.02 92 1014.2
20200708023817 54 243 1.7 9.6 0.02 0.02 0.02 92 1014.1
20200708023727 54 243 1.7 9.6 0.02 0.02 0.02 92 1014.1
20200708023304 54 230 5.2 9.6 0.01 0.01 0.01 92 1014.2
20200708023225 54 230 5.2 9.6 0.01 0.01 0.01 92 1014.2
20200708023125 53 231 5.2 8.7 0.01 0.01 0.01 92 1014.0
20200708022826 54 234 3.5 7.0 0.01 0.01 0.01 92 1014.2
20200708022726 54 234 3.5 7.0 0.01 0.01 0.01 92 1014.2
20200708021833 54 235 2.6 7.0 0.01 0.01 0.01 92 1014.2
20200708021727 54 235 2.6 7.0 0.01 0.01 0.01 92 1014.2
20200708021640 53 238 4.3 7.0 0.01 0.01 0.01 92 1014.0
20200708021329 54 251 2.6 8.7 0.01 0.01 0.01 92 1014.3
20200708021226 54 251 2.6 8.7 0.01 0.01 0.01 92 1014.3
20200708020726 54 259 2.6 8.7 0.01 0.01 0.01 92 1014.4
20200708020323 54 231 3.5 7.0 0.01 0.01 0.01 92 1014.4
20200708020225 54 231 3.5 7.0 0.01 0.01 0.01 92 1014.4
20200708020154 53 235 3.5 7.0 0.01 0.01 0.01 91 1014.2
20200708015510 54 277 2.6 7.0 0.01 0.01 0.01 91 1014.5
20200708015427 54 277 2.6 7.0 0.01 0.01 0.01 91 1014.5
20200708015014 54 268 2.6 7.8 0.01 0.01 0.01 91 1014.6
20200708014925 54 268 2.6 7.8 0.01 0.01 0.01 91 1014.6
20200708014426 54 267 3.5 7.8 0.01 0.01 0.01 90 1014.6
20200708014006 54 258 0.9 7.8 0.00 0.00 0.00 90 1014.6
20200708013928 54 258 0.9 7.8 0.00 0.00 0.00 90 1014.6
20200708013538 54 257 0.9 9.6 0.00 0.00 0.00 89 1014.7
20200708013425 54 257 0.9 9.6 0.00 0.00 0.00 89 1014.7
20200708012925 54 272 4.3 10.4 0.00 0.00 0.00 89 1014.6
20200708012425 54 276 2.6 10.4 0.00 0.00 0.00 88 1014.7
20200708012002 55 273 3.5 7.8 0.00 0.00 0.00 87 1014.8
20200708011925 55 273 3.5 7.8 0.00 0.00 0.00 87 1014.8
20200708011644 54 265 5.2 9.6 0.00 0.00 0.00 86 1014.6
20200708011406 55 266 3.5 9.6 0.00 0.00 0.00 86 1014.8
20200708010450 55 293 3.5 13.9 0.00 0.00 0.00 83 1014.7
20200708010406 55 293 3.5 13.9 0.00 0.00 0.00 83 1014.7
20200708010142 55 265 6.1 13.9 0.00 0.00 0.00 82 1014.5
20200708005940 56 294 7.0 13.9 0.00 0.00 0.00 81 1014.6
20200708005906 56 294 7.0 13.9 0.00 0.00 0.00 81 1014.6
20200708004406 57 268 7.0 13.9 0.00 0.00 0.00 71 1014.5
20200708003906 58 290 7.0 15.6 0.00 0.00 0.00 69 1014.5
20200708003406 58 268 9.6 15.6 0.00 0.00 0.00 67 1014.4
20200708002725 58 276 8.7 13.9 0.00 0.00 0.00 64 1014.4
20200708002635 58 276 8.7 13.9 0.00 0.00 0.00 64 1014.4
20200708002248 59 257 7.8 13.9 0.00 0.00 0.00 62 1014.3
20200708002135 59 257 7.8 13.9 0.00 0.00 0.00 62 1014.3
20200708001701 59 270 6.1 11.3 0.00 0.00 0.00 60 1013.9
20200708001635 59 255 6.1 11.3 0.00 0.00 0.00 60 1014.2
20200708001135 59 252 2.6 6.1 0.00 0.00 0.00 60 1013.8
20200708000245 59 216 1.7 4.3 0.00 0.00 0.00 60 1013.6
20200708000212 59 212 1.7 4.3 0.00 0.00 0.00 60 1013.8
20200708000135 59 212 1.7 4.3 0.00 0.00 0.00 60 1013.8
20200707235248 59 199 0.9 6.1 0.00 0.00 0.00 59 1013.7
20200707235135 59 199 0.9 6.1 0.00 0.00 0.00 59 1013.7
20200707234634 60 181 1.7 6.1 0.00 0.00 0.00 59 1013.7
20200707234218 60 205 0.9 4.3 0.00 0.00 0.00 58 1013.8
20200707234134 60 205 0.9 4.3 0.00 0.00 0.00 58 1013.8
20200707233635 60 0 0.0 4.3 0.00 0.00 0.00 58 1013.7
20200707233232 60 188 0.9 5.2 0.00 0.00 0.00 58 1013.7
20200707233136 60 188 0.9 5.2 0.00 0.00 0.00 58 1013.7
20200707232716 60 190 0.9 6.1 0.00 0.00 0.00 58 1013.8
20200707232635 60 190 0.9 6.1 0.00 0.00 0.00 58 1013.8
20200707232327 60 171 3.5 6.1 0.00 0.00 0.00 58 1013.7
20200707232136 60 171 3.5 6.1 0.00 0.00 0.00 58 1013.7
20200707231715 60 196 0.9 4.3 0.00 0.00 0.00 58 1013.6
20200707231635 60 195 1.7 4.3 0.00 0.00 0.00 58 1013.8
20200707231218 60 0 0.0 6.1 0.00 0.00 0.00 58 1013.9
20200707231135 60 0 0.0 6.1 0.00 0.00 0.00 58 1013.9
20200707230634 60 194 0.9 6.1 0.00 0.00 0.00 58 1014.0
20200707230211 60 207 1.7 3.5 0.00 0.00 0.00 58 1014.0
20200707230143 60 207 1.7 3.5 0.00 0.00 0.00 58 1013.8
20200707230135 60 207 1.7 3.5 0.00 0.00 0.00 58 1014.0
20200707225721 60 0 0.0 5.2 0.00 0.00 0.00 58 1014.1
20200707225634 60 0 0.0 5.2 0.00 0.00 0.00 58 1014.1
20200707225240 60 205 0.9 5.2 0.00 0.00 0.00 59 1014.1
20200707225135 60 205 0.9 5.2 0.00 0.00 0.00 59 1014.1
20200707224746 60 0 0.0 3.5 0.00 0.00 0.00 59 1014.2
20200707224635 60 0 0.0 3.5 0.00 0.00 0.00 59 1014.2
20200707224612 59 197 0.9 3.5 0.00 0.00 0.00 59 1014.0
20200707224241 60 196 0.9 2.6 0.00 0.00 0.00 59 1014.1
20200707224134 60 196 0.9 2.6 0.00 0.00 0.00 59 1014.1
20200707223239 60 196 0.9 4.3 0.00 0.00 0.00 59 1014.1
20200707223100 60 197 0.0 5.2 0.00 0.00 0.00 59 1013.9
20200707222740 60 196 1.7 5.2 0.00 0.00 0.00 58 1014.2
20200707222244 60 192 1.7 5.2 0.00 0.00 0.00 58 1014.3
20200707221738 60 208 1.7 5.2 0.00 0.00 0.00 58 1014.2
20200707221238 60 212 0.9 4.3 0.00 0.00 0.00 58 1014.3
20200707220739 60 213 0.9 3.5 0.00 0.00 0.00 58 1014.4
20200707220241 60 0 0.0 3.5 0.00 0.00 0.00 58 1014.3
20200707220134 60 215 0.9 3.5 0.00 0.00 0.00 58 1014.1
20200707215739 60 0 0.0 3.5 0.00 0.00 0.00 58 1014.4
20200707215239 60 214 0.9 3.5 0.00 0.00 0.00 58 1014.4
20200707214751 60 214 0.9 4.3 0.00 0.00 0.00 58 1014.3
20200707214708 60 214 0.9 4.3 0.00 0.00 0.00 58 1014.3
20200707213746 61 0 0.0 2.6 0.00 0.00 0.00 57 1014.3
20200707213707 61 0 0.0 2.6 0.00 0.00 0.00 57 1014.3
20200707213308 61 214 0.9 2.6 0.00 0.00 0.00 57 1014.3
20200707213207 61 214 0.9 2.6 0.00 0.00 0.00 57 1014.3
20200707212747 61 214 0.9 2.6 0.00 0.00 0.00 56 1014.4
20200707212707 61 214 0.9 2.6 0.00 0.00 0.00 56 1014.4
20200707212247 61 0 0.0 2.6 0.00 0.00 0.00 56 1014.4
20200707212212 61 0 0.0 2.6 0.00 0.00 0.00 56 1014.4
20200707211706 61 0 0.0 4.3 0.00 0.00 0.00 56 1014.4
20200707210707 61 216 0.9 2.6 0.00 0.00 0.00 56 1014.5
20200707210103 61 218 0.9 5.2 0.00 0.00 0.00 56 1014.3
20200707205812 61 0 0.0 5.2 0.00 0.00 0.00 56 1014.5
20200707205716 61 0 0.0 5.2 0.00 0.00 0.00 56 1014.5
20200707205346 61 219 0.9 5.2 0.00 0.00 0.00 56 1014.6
20200707205215 61 219 0.9 5.2 0.00 0.00 0.00 56 1014.6
20200707204347 62 220 0.9 3.5 0.00 0.00 0.00 55 1014.6
20200707204214 62 220 0.9 3.5 0.00 0.00 0.00 55 1014.6
20200707203755 62 0 0.0 2.6 0.00 0.00 0.00 55 1014.7
20200707203714 62 0 0.0 2.6 0.00 0.00 0.00 55 1014.7
20200707203131 62 220 0.0 2.6 0.00 0.00 0.00 55 1014.6
20200707202258 62 0 0.0 3.5 0.00 0.00 0.00 55 1014.8
20200707202214 62 0 0.0 3.5 0.00 0.00 0.00 55 1014.8
20200707201806 63 0 0.0 3.5 0.00 0.00 0.00 54 1014.8
20200707201717 63 0 0.0 3.5 0.00 0.00 0.00 54 1014.8
20200707201521 62 220 0.9 3.5 0.00 0.00 0.00 54 1014.8
20200707200308 63 0 0.0 2.6 0.00 0.00 0.00 53 1015.0
20200707200213 63 0 0.0 2.6 0.00 0.00 0.00 53 1015.0
20200707195714 63 221 0.9 3.5 0.00 0.00 0.00 53 1015.0
20200707195250 63 221 0.9 4.3 0.00 0.00 0.00 52 1015.2
20200707195215 63 221 0.9 4.3 0.00 0.00 0.00 52 1015.2
20200707194548 63 221 1.7 6.1 0.00 0.00 0.00 51 1015.0
20200707194248 63 222 1.7 6.1 0.00 0.00 0.00 51 1015.2
20200707194213 63 222 1.7 6.1 0.00 0.00 0.00 51 1015.2
20200707193323 64 232 2.6 6.1 0.00 0.00 0.00 51 1015.2
20200707193255 63 238 2.6 6.1 0.00 0.00 0.00 51 1015.0
20200707193213 64 232 2.6 6.1 0.00 0.00 0.00 51 1015.2
20200707192713 64 227 1.7 5.2 0.00 0.00 0.00 51 1015.2
20200707192214 64 224 2.6 5.2 0.00 0.00 0.00 51 1015.2
20200707191714 64 220 1.7 6.1 0.00 0.00 0.00 50 1015.3
20200707191641 63 217 2.6 7.0 0.00 0.00 0.00 50 1015.1
20200707191215 64 243 0.9 6.1 0.00 0.00 0.00 50 1015.2
20200707190515 64 234 2.6 6.1 0.00 0.00 0.00 49 1015.2
20200707190438 64 234 2.6 6.1 0.00 0.00 0.00 49 1015.2
20200707190243 64 229 1.7 5.2 0.00 0.00 0.00 49 1015.1
20200707185943 64 226 1.7 5.2 0.00 0.00 0.00 49 1015.2
20200707184937 65 236 1.7 7.8 0.00 0.00 0.00 49 1015.0
20200707184519 65 239 2.6 8.7 0.00 0.00 0.00 48 1015.0
20200707184437 65 239 2.6 8.7 0.00 0.00 0.00 48 1015.0
20200707184116 65 239 3.5 8.7 0.00 0.00 0.00 48 1015.0
20200707183938 65 239 3.5 8.7 0.00 0.00 0.00 48 1015.0
20200707183438 65 238 2.6 6.1 0.00 0.00 0.00 48 1015.0
20200707183201 65 226 1.7 5.2 0.00 0.00 0.00 48 1014.9
20200707182437 65 226 1.7 7.0 0.00 0.00 0.00 48 1015.0
20200707181619 65 0 0.0 7.0 0.00 0.00 0.00 48 1015.1
20200707181437 65 0 0.0 7.0 0.00 0.00 0.00 48 1015.1
20200707181022 65 253 1.7 7.0 0.00 0.00 0.00 47 1015.0
20200707180938 65 253 1.7 7.0 0.00 0.00 0.00 47 1015.0
20200707180418 65 267 3.5 9.6 0.00 0.00 0.00 47 1015.0
20200707180118 65 300 4.3 9.6 0.00 0.00 0.00 46 1014.9
20200707175536 66 237 4.3 7.8 0.00 0.00 0.00 45 1015.1
20200707175419 66 237 4.3 7.8 0.00 0.00 0.00 45 1015.1
20200707174718 66 281 3.5 10.4 0.00 0.00 0.00 44 1014.9
20200707174510 67 240 3.5 10.4 0.00 0.00 0.00 44 1015.0
20200707174418 67 240 3.5 10.4 0.00 0.00 0.00 44 1015.0
20200707174207 67 259 2.6 8.7 0.00 0.00 0.00 44 1015.1
20200707173918 67 259 2.6 8.7 0.00 0.00 0.00 44 1015.1
20200707173608 67 269 4.3 10.4 0.00 0.00 0.00 44 1015.2
20200707173419 67 269 4.3 10.4 0.00 0.00 0.00 44 1015.2
20200707173246 66 247 6.1 11.3 0.00 0.00 0.00 44 1015.2
20200707173205 66 279 6.1 10.4 0.00 0.00 0.00 44 1015.0
20200707172922 66 247 6.1 11.3 0.00 0.00 0.00 44 1015.2
20200707172653 67 248 5.2 13.9 0.00 0.00 0.00 43 1015.1
20200707172419 67 248 5.2 13.9 0.00 0.00 0.00 43 1015.1
20200707172103 67 245 4.3 13.9 0.00 0.00 0.00 43 1015.2
20200707171919 67 245 4.3 13.9 0.00 0.00 0.00 43 1015.2
20200707171709 67 255 5.2 9.6 0.00 0.00 0.00 43 1015.3
20200707171555 67 219 6.1 13.9 0.00 0.00 0.00 43 1015.1
20200707171418 67 255 5.2 9.6 0.00 0.00 0.00 43 1015.3
20200707171153 67 266 6.1 10.4 0.00 0.00 0.00 43 1015.4
20200707170918 67 266 6.1 10.4 0.00 0.00 0.00 43 1015.4
20200707170654 67 254 5.2 13.0 0.00 0.00 0.00 43 1015.3
20200707170418 67 254 5.2 13.0 0.00 0.00 0.00 43 1015.3
20200707170218 66 216 6.1 13.0 0.00 0.00 0.00 43 1015.2
20200707165653 67 232 5.2 13.9 0.00 0.00 0.00 42 1015.4
20200707165419 67 232 5.2 13.9 0.00 0.00 0.00 42 1015.4
20200707165012 68 249 8.7 13.9 0.00 0.00 0.00 41 1015.4
20200707164918 68 249 8.7 13.9 0.00 0.00 0.00 41 1015.4
20200707164457 68 271 6.1 11.3 0.00 0.00 0.00 41 1015.4
20200707164420 68 271 6.1 11.3 0.00 0.00 0.00 41 1015.4
20200707164153 68 242 2.6 10.4 0.00 0.00 0.00 42 1015.4
20200707163919 68 242 2.6 10.4 0.00 0.00 0.00 42 1015.4
20200707163520 67 298 1.7 10.4 0.00 0.00 0.00 44 1015.3
20200707163418 67 298 1.7 10.4 0.00 0.00 0.00 44 1015.3
20200707163147 67 293 5.2 10.4 0.00 0.00 0.00 43 1015.4
20200707163043 67 338 5.2 10.4 0.00 0.00 0.00 43 1015.3
20200707162919 67 293 5.2 10.4 0.00 0.00 0.00 43 1015.4
20200707162527 67 281 5.2 9.6 0.00 0.00 0.00 43 1015.5
20200707162420 67 281 5.2 9.6 0.00 0.00 0.00 43 1015.5
20200707161953 67 316 2.6 7.8 0.00 0.00 0.00 45 1015.5
20200707161918 67 316 2.6 7.8 0.00 0.00 0.00 45 1015.5
20200707161736 66 272 4.3 7.8 0.00 0.00 0.00 44 1015.4
20200707161653 67 302 2.6 7.8 0.00 0.00 0.00 44 1015.5
20200707161419 67 302 2.6 7.8 0.00 0.00 0.00 44 1015.5
20200707161153 67 281 1.7 6.1 0.00 0.00 0.00 44 1015.4
20200707160919 67 281 1.7 6.1 0.00 0.00 0.00 44 1015.4
20200707160557 66 261 0.9 9.6 0.00 0.00 0.00 44 1015.4
20200707160419 66 261 0.9 9.6 0.00 0.00 0.00 44 1015.4
20200707160210 66 263 3.5 11.3 0.00 0.00 0.00 44 1015.4
20200707160050 67 282 5.2 9.6 0.00 0.00 0.00 44 1015.5
20200707155919 67 282 5.2 9.6 0.00 0.00 0.00 44 1015.5
20200707155405 67 288 7.0 11.3 0.00 0.00 0.00 43 1015.5
20200707154906 68 252 4.3 9.6 0.00 0.00 0.00 44 1015.5
20200707154745 67 271 5.2 9.6 0.00 0.00 0.00 44 1015.4
20200707154404 67 245 6.1 9.6 0.00 0.00 0.00 45 1015.5
20200707153455 67 285 7.0 14.8 0.00 0.00 0.00 45 1015.7
20200707153406 67 285 7.0 14.8 0.00 0.00 0.00 45 1015.7
20200707153233 67 288 6.1 14.8 0.00 0.00 0.00 45 1015.6
20200707153007 67 259 5.2 8.7 0.00 0.00 0.00 45 1015.7
20200707152906 67 259 5.2 8.7 0.00 0.00 0.00 45 1015.7
20200707151637 67 289 3.5 12.2 0.00 0.00 0.00 46 1015.8
20200707151435 67 289 3.5 12.2 0.00 0.00 0.00 46 1015.8
20200707151207 67 315 3.5 12.2 0.00 0.00 0.00 46 1015.9
20200707150936 67 315 3.5 12.2 0.00 0.00 0.00 46 1015.9
20200707150652 67 303 2.6 7.8 0.00 0.00 0.00 47 1015.9
20200707150436 67 303 2.6 7.8 0.00 0.00 0.00 47 1015.9
20200707150143 67 336 3.5 8.7 0.00 0.00 0.00 46 1015.9
20200707150014 66 316 2.6 8.7 0.00 0.00 0.00 46 1015.8
20200707145935 67 336 3.5 8.7 0.00 0.00 0.00 46 1015.9
20200707145529 67 290 2.6 8.7 0.00 0.00 0.00 47 1016.0
20200707145436 67 290 2.6 8.7 0.00 0.00 0.00 47 1016.0
20200707144715 66 313 3.5 9.6 0.00 0.00 0.00 47 1015.9
20200707144521 67 269 4.3 9.6 0.00 0.00 0.00 46 1016.0
20200707144435 67 269 4.3 9.6 0.00 0.00 0.00 46 1016.0
20200707143232 66 269 7.0 13.0 0.00 0.00 0.00 46 1016.0
20200707143153 66 257 7.8 13.0 0.00 0.00 0.00 45 1015.8
20200707142947 66 269 7.0 13.0 0.00 0.00 0.00 46 1016.0
20200707142539 66 257 4.3 13.0 0.00 0.00 0.00 47 1016.1
20200707142444 66 257 4.3 13.0 0.00 0.00 0.00 47 1016.1
20200707142153 66 332 3.5 8.7 0.00 0.00 0.00 48 1016.1
20200707141945 66 332 3.5 8.7 0.00 0.00 0.00 48 1016.1
20200707141547 66 337 1.7 8.7 0.00 0.00 0.00 48 1016.1
20200707141444 66 337 1.7 8.7 0.00 0.00 0.00 48 1016.1
20200707141226 66 285 2.6 8.7 0.00 0.00 0.00 48 1016.2